This is the latest recevied weather packets stored in our database for station/object WE1C. If no packets are shown the sender has not sent any weather packets the latest 10 day(s).
| Time | Temp. | Humidity | Pressure | Rain* | Wind** | Luminosity | Snow |
|---|---|---|---|---|---|---|---|
| 1777984846 | 17.22° C | 61% | 1039.2 hPa | 0 mm | - | 405 W/m² | - |
| 1777984543 | 16.67° C | 64% | 1039 hPa | 0 mm | - | 396 W/m² | - |
| 1777984239 | 16.11° C | 64% | 1039.2 hPa | 0 mm | - | 377 W/m² | - |
| 1777983936 | 16.67° C | 63% | 1039.5 hPa | 0 mm | - | 130 W/m² | - |
| 1777983633 | 16.11° C | 64% | 1039.3 hPa | 0 mm | - | 421 W/m² | - |
| 1777983329 | 15.56° C | 65% | 1039.3 hPa | 0 mm | - | 172 W/m² | - |
| 1777983026 | 16.67° C | 64% | 1039.3 hPa | 0 mm | - | 96 W/m² | - |
| 1777982722 | 16.11° C | 64% | 1039.2 hPa | 0 mm | - | 278 W/m² | - |
| 1777982418 | 15.56° C | 65% | 1039.4 hPa | 0 mm | - | 180 W/m² | - |
| 1777982113 | 15.56° C | 65% | 1039.3 hPa | 0 mm | - | 272 W/m² | - |
| 1777981811 | 15.56° C | 65% | 1038.9 hPa | 0 mm | - | 177 W/m² | - |
| 1777981508 | 15.56° C | 65% | 1038.9 hPa | 0 mm | - | 265 W/m² | - |
| 1777981204 | 15.56° C | 66% | 1038.9 hPa | 0 mm | - | 210 W/m² | - |
| 1777980900 | 15° C | 66% | 1039 hPa | 0 mm | - | 181 W/m² | - |
| 1777980595 | 15° C | 67% | 1039 hPa | 0 mm | - | 173 W/m² | - |
| 1777980293 | 15° C | 67% | 1038.9 hPa | 0 mm | - | 71 W/m² | - |
| 1777979990 | 14.44° C | 68% | 1038.9 hPa | 0 mm | - | 67 W/m² | - |
| 1777979684 | 14.44° C | 68% | 1038.8 hPa | 0 mm | - | 66 W/m² | - |
| 1777979381 | 14.44° C | 68% | 1038.4 hPa | 0 mm | - | 68 W/m² | - |
| 1777979077 | 14.44° C | 68% | 1038.7 hPa | 0 mm | - | 68 W/m² | - |
| 1777978774 | 14.44° C | 68% | 1038.5 hPa | 0 mm | - | 69 W/m² | - |
| 1777978465 | 13.89° C | 68% | 1038.4 hPa | 0 mm | - | 70 W/m² | - |
| 1777978161 | 13.89° C | 68% | 1038.5 hPa | 0 mm | - | 72 W/m² | - |
| 1777977859 | 13.89° C | 69% | 1038.4 hPa | 0 mm | - | 69 W/m² | - |
| 1777977555 | 13.89° C | 68% | 1038.3 hPa | 0 mm | - | 60 W/m² | - |
* Rain latest hour (hover to see other rain measurements)
** Current wind speed in m/s (hover to see current wind gust speed)